Weather History for KIWI - May, 2014

Change the Weather History Date:

Monday, May 5, 2014

  Actual Average Record
Temperature  
Mean Temperature 52 °F -  
Max Temperature 62 °F 59 °F 79 °F (2000)
Min Temperature 44 °F 37 °F 28 °F (1997)
Degree Days  
Heating Degree Days 13    
Growing Degree Days 2 (Base 50)    
Moisture  
Dew Point 40 °F    
Average Humidity 68    
Maximum Humidity 90    
Minimum Humidity 42    
Precipitation  
Precipitation 0.00 in - - ()
Sea Level Pressure  
Sea Level Pressure 29.70 in    
Wind  
Wind Speed 3 mph (WNW)    
Max Wind Speed 9 mph    
Max Gust Speed 16 mph    
Visibility 10 miles    
Events      
Averages and records for this station are not official NWS values.
T = Trace of Precipitation, MM = Missing Value Source: NWS Daily Summary

Daily Weather History Graph

Daily Weather History Graph

Search for Another Location

Airport or City:

Trip Planner

Search our weather history database for the weather conditions in past years. The results will help you decide how hot, cold, wet, or windy it might be!

Date:

Astronomy

May. 05, 2014 Rise Set
Actual Time 5:25 AM EDT 7:46 PM EDT
Civil Twilight 4:52 AM EDT 8:18 PM EDT
Nautical Twilight 4:13 AM EDT 8:59 PM EDT
Astronomical Twilight 3:28 AM EDT 9:44 PM EDT
Moon 10:42 AM EDT (5/5) 12:28 AM EDT (5/5)
Length of Visible Light 15h 26m
Length of Day
14h 21m
Waxing Crescent, 36% of the Moon is Illuminated
May 5
Waxing Crescent
May 6
First Quarter
May 14
Full
May 21
Last Quarter
May 28
New

Hourly Weather History & Observations

Time (EDT) Temp. Windchill Dew Point Humidity Pressure Visibility Wind Dir Wind Speed Gust Speed Precip Events Conditions
12:53 AM 45.0 °F - 41.0 °F 86% 29.56 in 10.0 mi Calm Calm - N/A   Mostly Cloudy
1:53 AM 45.0 °F - 41.0 °F 86% 29.58 in 10.0 mi Calm Calm - N/A   Overcast
2:53 AM 44.1 °F - 39.9 °F 85% 29.59 in 10.0 mi Calm Calm - N/A   Clear
3:53 AM 44.1 °F - 39.9 °F 85% 29.61 in 10.0 mi Calm Calm - N/A   Clear
4:16 AM 45.0 °F 43.5 °F 41.0 °F 86% 29.61 in 10.0 mi Variable 3.5 mph - N/A   Mostly Cloudy
4:53 AM 46.9 °F - 42.1 °F 83% 29.63 in 10.0 mi Variable 3.5 mph - N/A   Overcast
5:21 AM 46.0 °F - 42.1 °F 86% 29.64 in 10.0 mi Calm Calm - N/A   Overcast
5:53 AM 45.0 °F - 42.1 °F 90% 29.66 in 10.0 mi Calm Calm - N/A   Mostly Cloudy
6:53 AM 48.0 °F - 43.0 °F 83% 29.68 in 10.0 mi Variable 4.6 mph - N/A   Mostly Cloudy
7:53 AM 51.1 °F - 44.1 °F 77% 29.70 in 10.0 mi Variable 4.6 mph - N/A   Mostly Cloudy
8:53 AM 52.0 °F - 43.0 °F 71% 29.71 in 10.0 mi Variable 5.8 mph - N/A   Overcast
9:00 AM 53.1 °F - 43.0 °F 69% 29.71 in 10.0 mi North - - N/A   Overcast
9:40 AM 55.9 °F - 43.0 °F 62% 29.71 in 10.0 mi Variable 4.6 mph - N/A   Mostly Cloudy
9:53 AM 55.0 °F - 42.1 °F 62% 29.71 in 10.0 mi Variable 5.8 mph - N/A   Mostly Cloudy
10:53 AM 55.9 °F - 39.9 °F 55% 29.71 in 10.0 mi Variable 6.9 mph - N/A   Overcast
11:53 AM 57.0 °F - 37.9 °F 49% 29.72 in 10.0 mi North - - N/A   Overcast
12:53 PM 60.1 °F - 37.9 °F 44% 29.71 in 10.0 mi Variable 6.9 mph - N/A   Mostly Cloudy
2:53 PM 57.9 °F - 37.9 °F 47% 29.72 in 10.0 mi WNW 5.8 mph 16.1 mph N/A   Overcast
3:53 PM 59.0 °F - 36.0 °F 42% 29.72 in 10.0 mi Variable 5.8 mph 16.1 mph N/A   Mostly Cloudy
4:53 PM 60.1 °F - 37.0 °F 42% 29.72 in 10.0 mi Variable 6.9 mph - 0.00 in   Mostly Cloudy
5:53 PM 59.0 °F - 37.9 °F 46% 29.72 in 10.0 mi West 9.2 mph - N/A   Overcast
6:53 PM 54.0 °F - 41.0 °F 62% 29.75 in 10.0 mi Variable 3.5 mph - N/A   Mostly Cloudy
7:53 PM 53.1 °F - 39.9 °F 61% 29.78 in 10.0 mi Variable 3.5 mph - N/A   Scattered Clouds
8:53 PM 51.1 °F - 39.0 °F 63% 29.80 in 10.0 mi Variable 4.6 mph - N/A   Partly Cloudy
9:53 PM 50.0 °F - 37.9 °F 63% 29.81 in 10.0 mi Variable 3.5 mph - N/A   Clear
10:53 PM 48.0 °F - 37.9 °F 68% 29.81 in 10.0 mi Calm Calm - N/A   Clear
11:53 PM 46.9 °F - 37.9 °F 71% 29.80 in 10.0 mi Calm Calm - N/A   Clear